Вернуться в каталог

METEOR 2-8 DEB

LostPO
NORAD 36357·DEBRIS·🇷🇺 Russia

Запущен Mar 25, 1982 с Plesetsk Cosmodrome

Loading…

Ближайшие Пролёты (ближайшие 24 часа)

TLE

УстаревшееSource: Space-Track

Эпоха: Sep 10, 2022, 11:18 UTC

1 36357U 82025AT  22253.47098638  .00002097  00000-0  12310-2 0  9997
2 36357  82.5360 327.1112 0013638 342.9451  17.1262 14.07684944915984

Отслеживайте METEOR 2-8 DEB в реальном времени с AllMySat

Download on the App Store